TimeMST,TemperatureF,Dew PointF,Humidity,Sea Level PressureIn,VisibilityMPH,Wind Direction,Wind SpeedMPH,Gust SpeedMPH,PrecipitationIn,Events,Conditions,WindDirDegrees,DateUTC
12:51 AM,27.0,21.9,81,30.40,10.0,West,3.5,-,N/A,,Clear,270,2013-12-26 07:51:00
1:51 AM,27.0,21.0,78,30.40,10.0,West,3.5,-,N/A,,Clear,280,2013-12-26 08:51:00
2:51 AM,27.0,21.0,78,30.38,10.0,WNW,4.6,-,N/A,,Clear,290,2013-12-26 09:51:00
3:51 AM,27.0,21.0,78,30.36,10.0,WNW,6.9,-,N/A,,Clear,290,2013-12-26 10:51:00
4:51 AM,24.1,19.9,84,30.37,10.0,Calm,Calm,-,N/A,,Clear,0,2013-12-26 11:51:00
5:51 AM,23.0,18.0,81,30.38,10.0,Calm,Calm,-,N/A,,Clear,0,2013-12-26 12:51:00
6:51 AM,19.9,17.1,89,30.41,10.0,SSW,3.5,-,N/A,,Clear,210,2013-12-26 13:51:00
7:51 AM,25.0,21.0,85,30.40,10.0,Calm,Calm,-,N/A,,Clear,0,2013-12-26 14:51:00
8:51 AM,30.9,24.1,76,30.39,10.0,Calm,Calm,-,N/A,,Clear,0,2013-12-26 15:51:00
9:51 AM,37.0,28.0,70,30.36,10.0,SSE,8.1,-,N/A,,Clear,160,2013-12-26 16:51:00
10:51 AM,42.1,28.9,60,30.33,10.0,SSE,3.5,-,N/A,,Clear,160,2013-12-26 17:51:00
11:51 AM,46.9,27.0,46,30.28,10.0,SSE,9.2,-,N/A,,Clear,150,2013-12-26 18:51:00
12:51 PM,50.0,27.0,41,30.23,10.0,SSE,11.5,-,N/A,,Clear,160,2013-12-26 19:51:00
1:51 PM,51.1,24.1,35,30.20,10.0,SSE,10.4,-,N/A,,Clear,160,2013-12-26 20:51:00
2:51 PM,52.0,21.9,31,30.19,10.0,South,13.8,-,N/A,,Clear,170,2013-12-26 21:51:00
3:51 PM,52.0,19.9,28,30.19,10.0,SSE,11.5,-,N/A,,Clear,160,2013-12-26 22:51:00
4:51 PM,46.9,28.0,48,30.21,10.0,SSE,9.2,-,N/A,,Clear,160,2013-12-26 23:51:00
5:51 PM,41.0,28.0,60,30.25,10.0,SSE,8.1,-,N/A,,Clear,160,2013-12-27 00:51:00
6:51 PM,37.0,27.0,67,30.29,10.0,SSE,4.6,-,N/A,,Clear,150,2013-12-27 01:51:00
7:51 PM,35.1,27.0,72,30.30,10.0,Calm,Calm,-,N/A,,Clear,0,2013-12-27 02:51:00
8:51 PM,33.1,26.1,75,30.31,10.0,Calm,Calm,-,N/A,,Clear,0,2013-12-27 03:51:00
9:51 PM,32.0,25.0,75,30.32,10.0,Calm,Calm,-,N/A,,Clear,0,2013-12-27 04:51:00
10:51 PM,28.9,24.1,82,30.32,10.0,North,4.6,-,N/A,,Clear,360,2013-12-27 05:51:00
11:51 PM,30.0,24.1,79,30.32,10.0,North,5.8,-,N/A,,Clear,350,2013-12-27 06:51:00